Flag for U.S.A. Weather past 2 weeks in Juneau, Alaska, U.S.A.

Now
57 °F

Mostly cloudy.


Feels Like: 56 °F
Forecast: 50 / 62 °F
Wind: 6 mph from East

Location: Juneau International Airport

Current Time: May 24, 2015 at 12:11:45 AM

Latest Report: May 23, 2015 at 11:53 PM


Visibility: 10 mi

Pressure: 30.18 "Hg

Humidity: 74%

Dew point: 49 °F

Location of JuneauLocation

Historic Weather in Juneau — Graph

°F

Juneau temperature yesterday

Maximum temperature yesterday: 71 °F (at 2:53 PM)
Minimum temperature yesterday: 46 °F (at 4:53 AM)
Average temperature yesterday: 60 °F

Past Weeks' High & Low Weather Summary

 TemperatureHumidityPressure
High73 °F (May 18, 3:53 PM)100% (May 10, 4:53 AM)30.19 "Hg (May 10, 4:53 AM)
Low38 °F (May 10, 2:53 AM)27% (May 12, 5:53 PM)29.74 "Hg (May 12, 6:53 PM)
Average57 °F66%30.03 "Hg
* Reported May 8 10:53 PM — May 23 10:53 PM, Juneau, Weather by CustomWeather, © 2015

Note: Actual official high and low records may vary slightly from our data, if they occured in-between our weather recording intervals... More about our weather records

Advertising

Juneau weather history for previous 24 hours

 ConditionsComfort  
Time TempWeatherWind HumidityBarometerVisibility
10:53 PM
Sat, May 23
57 °FOvercast.6 mph74%30.17 "Hg10 mi
9:53 PM60 °FMostly cloudy.12 mph67%30.16 "Hg10 mi
8:53 PM60 °FMostly cloudy.8 mph67%30.15 "Hg10 mi
7:53 PM62 °FMostly cloudy.7 mph62%30.14 "Hg10 mi
6:53 PM65 °FMostly cloudy.3 mph54%30.13 "Hg10 mi
5:53 PM67 °FPartly sunny.3 mph53%30.12 "Hg10 mi
4:53 PM69 °FMostly cloudy.6 mph47%30.12 "Hg10 mi
3:53 PM68 °FOvercast.10 mph49%30.12 "Hg10 mi
2:53 PM71 °FOvercast.10 mph42%30.12 "Hg10 mi
1:53 PM68 °FOvercast.7 mph51%30.12 "Hg10 mi
12:53 PM69 °FPartly sunny.5 mph45%30.11 "Hg10 mi
11:53 AM67 °FPartly sunny.3 mph53%30.10 "Hg10 mi
10:53 AM63 °FSunny.6 mph58%30.09 "Hg10 mi
9:53 AM63 °FPartly sunny.6 mph58%30.09 "Hg10 mi
8:53 AM58 °FPartly sunny.No wind70%30.09 "Hg10 mi
7:53 AM57 °FPartly sunny.6 mph74%30.08 "Hg10 mi
6:53 AM54 °FPartly sunny.No wind80%30.08 "Hg10 mi
5:53 AM50 °FScattered clouds.No wind83%30.07 "Hg10 mi
4:53 AM46 °FPassing clouds.No wind89%30.07 "Hg10 mi
3:53 AM47 °FPassing clouds.No wind90%30.07 "Hg10 mi
2:53 AM50 °FPassing clouds.No wind83%30.07 "Hg10 mi
1:53 AM52 °FPassing clouds.No wind80%30.07 "Hg10 mi
12:53 AM52 °FPassing clouds.3 mph83%30.06 "Hg10 mi
Weather by CustomWeather, © 2015

See weather overviewHow to use our weather pages